Time,TemperatureF,DewpointF,PressureIn,WindDirection,WindDirectionDegrees,WindSpeedMPH,WindSpeedGustMPH,Humidity,HourlyPrecipIn,Conditions,Clouds,dailyrainin,SoftwareType,DateUTC
2013-06-19 00:00:00,52.9,0.0,30.01,ESE,121,0.0,0.0,0,0.00,,BKN075,0.00,VWS V13.01,2013-06-19 07:00:00,
2013-06-19 00:05:00,52.9,0.0,30.01,ESE,121,0.0,0.0,0,0.00,,BKN075,0.00,VWS V13.01,2013-06-19 07:05:00,
2013-06-19 00:10:00,52.9,0.0,30.01,ESE,121,0.0,0.0,0,0.00,,BKN075,0.00,VWS V13.01,2013-06-19 07:10:00,
2013-06-19 00:15:00,52.8,0.0,30.01,ESE,121,0.0,0.0,0,0.00,,BKN075,0.00,VWS V13.01,2013-06-19 07:15:00,
2013-06-19 00:20:00,52.8,0.0,30.00,ESE,121,0.0,0.0,0,0.00,,BKN075,0.00,VWS V13.01,2013-06-19 07:20:00,
2013-06-19 00:25:00,52.8,0.0,30.01,ESE,121,0.0,0.0,0,0.00,,BKN075,0.00,VWS V13.01,2013-06-19 07:25:00,
2013-06-19 00:30:00,52.8,0.0,30.00,ESE,121,0.0,0.0,0,0.00,,BKN075,0.00,VWS V13.01,2013-06-19 07:30:00,
2013-06-19 00:35:00,52.8,0.0,30.00,ESE,121,0.0,1.0,0,0.00,,BKN075,0.01,VWS V13.01,2013-06-19 07:35:00,
2013-06-19 00:40:00,52.7,0.0,30.00,ESE,121,0.0,1.0,0,0.01,,BKN075,0.01,VWS V13.01,2013-06-19 07:40:00,
2013-06-19 00:46:00,52.7,0.0,30.01,ESE,121,0.0,0.0,0,0.01,,BKN075,0.01,VWS V13.01,2013-06-19 07:46:00,
2013-06-19 00:51:00,52.7,0.0,30.00,ESE,121,0.0,0.0,0,0.01,,OVC065,0.01,VWS V13.01,2013-06-19 07:51:00,
2013-06-19 00:56:00,52.8,0.0,30.00,ESE,121,0.0,0.0,0,0.02,,OVC065,0.02,VWS V13.01,2013-06-19 07:56:00,
2013-06-19 01:01:00,52.7,0.0,30.00,ESE,121,0.0,1.0,0,0.02,,OVC065,0.02,VWS V13.01,2013-06-19 08:01:00,
2013-06-19 01:06:00,52.7,0.0,30.00,ESE,121,0.0,1.0,0,0.03,,OVC065,0.04,VWS V13.01,2013-06-19 08:06:00,
2013-06-19 01:11:00,52.7,0.0,30.00,ESE,121,0.0,1.0,0,0.04,,OVC065,0.04,VWS V13.01,2013-06-19 08:11:00,
2013-06-19 01:16:00,52.7,0.0,30.00,ESE,121,0.0,0.0,0,0.04,,OVC065,0.04,VWS V13.01,2013-06-19 08:16:00,
2013-06-19 01:21:00,52.7,0.0,30.00,ESE,121,0.0,0.0,0,0.05,,OVC065,0.05,VWS V13.01,2013-06-19 08:21:00,
2013-06-19 01:26:00,52.7,0.0,30.00,ESE,121,0.0,0.0,0,0.05,,OVC065,0.05,VWS V13.01,2013-06-19 08:26:00,
2013-06-19 01:31:00,52.7,0.0,30.00,ESE,121,0.0,0.0,0,0.05,,OVC065,0.05,VWS V13.01,2013-06-19 08:31:00,
2013-06-19 01:36:00,52.7,0.0,30.00,ESE,121,0.0,0.0,0,0.05,,OVC065,0.05,VWS V13.01,2013-06-19 08:36:00,
2013-06-19 01:42:00,52.6,0.0,30.00,ESE,121,0.0,0.0,0,0.05,,OVC065,0.05,VWS V13.01,2013-06-19 08:42:00,
2013-06-19 01:47:00,52.6,0.0,29.99,ESE,121,0.0,0.0,0,0.04,,OVC065,0.05,VWS V13.01,2013-06-19 08:47:00,
2013-06-19 01:52:00,52.6,0.0,29.99,ESE,121,0.0,0.0,0,0.04,,OVC065,0.05,VWS V13.01,2013-06-19 08:52:00,
2013-06-19 01:57:00,52.6,0.0,29.99,ESE,121,0.0,0.0,0,0.04,,OVC065,0.05,VWS V13.01,2013-06-19 08:57:00,
2013-06-19 02:02:00,52.6,0.0,29.99,ESE,121,0.0,0.0,0,0.03,,OVC065,0.05,VWS V13.01,2013-06-19 09:02:00,
2013-06-19 02:07:00,52.5,0.0,29.99,ESE,121,0.0,0.0,0,0.03,,OVC065,0.05,VWS V13.01,2013-06-19 09:07:00,
2013-06-19 02:12:00,52.5,0.0,29.99,ESE,121,0.0,0.0,0,0.03,,OVC065,0.05,VWS V13.01,2013-06-19 09:12:00,
2013-06-19 02:17:00,52.5,0.0,30.00,ESE,121,0.0,0.0,0,0.01,,OVC065,0.05,VWS V13.01,2013-06-19 09:17:00,
2013-06-19 02:22:00,52.6,0.0,29.99,ESE,121,0.0,0.0,0,0.01,,OVC065,0.05,VWS V13.01,2013-06-19 09:22:00,
2013-06-19 02:27:00,52.5,0.0,30.00,ESE,121,0.0,0.0,0,0.01,,OVC065,0.05,VWS V13.01,2013-06-19 09:27:00,
2013-06-19 02:32:00,52.5,0.0,30.00,ESE,121,0.0,0.0,0,0.00,,OVC065,0.05,VWS V13.01,2013-06-19 09:32:00,
2013-06-19 02:38:00,52.6,0.0,30.00,ESE,121,0.0,0.0,0,0.00,,OVC065,0.05,VWS V13.01,2013-06-19 09:38:00,
2013-06-19 02:43:00,52.6,0.0,30.00,ESE,121,0.0,0.0,0,0.00,,OVC065,0.05,VWS V13.01,2013-06-19 09:43:00,
2013-06-19 02:48:00,52.5,0.0,30.00,ESE,121,0.0,0.0,0,0.00,,OVC065,0.05,VWS V13.01,2013-06-19 09:48:00,
2013-06-19 02:53:00,52.5,0.0,30.00,ESE,121,0.0,0.0,0,0.00,,OVC070,0.05,VWS V13.01,2013-06-19 09:53:00,
2013-06-19 02:58:00,52.4,0.0,30.00,ESE,121,0.0,0.0,0,0.00,,OVC070,0.05,VWS V13.01,2013-06-19 09:58:00,
2013-06-19 03:03:00,52.4,0.0,30.00,ESE,121,0.0,0.0,0,0.00,,OVC070,0.05,VWS V13.01,2013-06-19 10:03:00,
2013-06-19 03:08:00,52.4,0.0,30.00,ESE,121,0.0,0.0,0,0.00,,OVC070,0.05,VWS V13.01,2013-06-19 10:08:00,
2013-06-19 03:13:00,52.5,0.0,30.00,ESE,121,0.0,0.0,0,0.00,,OVC070,0.05,VWS V13.01,2013-06-19 10:13:00,
2013-06-19 03:18:00,52.5,0.0,30.00,ESE,121,0.0,0.0,0,0.00,,OVC070,0.05,VWS V13.01,2013-06-19 10:18:00,
2013-06-19 03:23:00,52.4,0.0,30.00,ESE,121,0.0,0.0,0,0.00,,OVC070,0.05,VWS V13.01,2013-06-19 10:23:00,
2013-06-19 03:28:00,52.4,0.0,30.00,ESE,121,0.0,0.0,0,0.00,,OVC070,0.05,VWS V13.01,2013-06-19 10:28:00,
2013-06-19 03:34:00,52.4,0.0,30.00,ESE,121,0.0,0.0,0,0.00,,OVC070,0.05,VWS V13.01,2013-06-19 10:34:00,
2013-06-19 03:39:00,52.4,0.0,30.00,ESE,121,0.0,0.0,0,0.00,,OVC070,0.05,VWS V13.01,2013-06-19 10:39:00,
2013-06-19 03:44:00,52.4,0.0,30.00,ESE,121,0.0,0.0,0,0.00,,OVC070,0.05,VWS V13.01,2013-06-19 10:44:00,
2013-06-19 03:49:00,52.4,0.0,30.00,ESE,121,0.0,0.0,0,0.00,,OVC070,0.05,VWS V13.01,2013-06-19 10:49:00,
2013-06-19 03:54:00,52.4,0.0,29.99,ESE,121,0.0,0.0,0,0.00,,OVC047,0.05,VWS V13.01,2013-06-19 10:54:00,
2013-06-19 03:59:00,52.4,0.0,29.99,ESE,121,0.0,0.0,0,0.00,,OVC047,0.05,VWS V13.01,2013-06-19 10:59:00,
2013-06-19 04:04:00,52.4,0.0,30.00,ESE,121,0.0,0.0,0,0.00,,OVC047,0.05,VWS V13.01,2013-06-19 11:04:00,
2013-06-19 04:09:00,52.4,0.0,29.99,ESE,121,0.0,0.0,0,0.00,,OVC047,0.05,VWS V13.01,2013-06-19 11:09:00,
2013-06-19 04:14:00,52.4,0.0,29.99,ESE,121,0.0,0.0,0,0.00,,OVC047,0.05,VWS V13.01,2013-06-19 11:14:00,
2013-06-19 04:19:00,52.4,0.0,29.99,ESE,121,0.0,0.0,0,0.00,,OVC047,0.05,VWS V13.01,2013-06-19 11:19:00,
2013-06-19 04:24:00,52.4,0.0,29.99,ESE,121,0.0,0.0,0,0.00,,OVC047,0.05,VWS V13.01,2013-06-19 11:24:00,
2013-06-19 04:29:00,52.4,0.0,29.99,ESE,121,0.0,0.0,0,0.00,,OVC047,0.05,VWS V13.01,2013-06-19 11:29:00,
2013-06-19 04:34:00,52.4,0.0,29.99,ESE,121,0.0,0.0,0,0.00,,OVC047,0.05,VWS V13.01,2013-06-19 11:34:00,
2013-06-19 04:40:00,52.4,0.0,29.99,ESE,121,0.0,0.0,0,0.00,,OVC047,0.05,VWS V13.01,2013-06-19 11:40:00,
2013-06-19 04:45:00,52.4,0.0,29.99,ESE,121,0.0,0.0,0,0.00,,OVC047,0.05,VWS V13.01,2013-06-19 11:45:00,
2013-06-19 04:50:00,52.4,0.0,29.99,ESE,121,0.0,0.0,0,0.00,,OVC060,0.05,VWS V13.01,2013-06-19 11:50:00,
2013-06-19 04:55:00,52.3,0.0,29.99,ESE,121,0.0,0.0,0,0.00,,OVC060,0.05,VWS V13.01,2013-06-19 11:55:00,
2013-06-19 05:00:00,52.3,0.0,29.99,ESE,121,0.0,0.0,0,0.00,,OVC060,0.05,VWS V13.01,2013-06-19 12:00:00,
2013-06-19 05:05:00,52.2,0.0,29.99,ESE,121,0.0,0.0,0,0.00,,OVC060,0.05,VWS V13.01,2013-06-19 12:05:00,
2013-06-19 05:10:00,52.2,0.0,29.99,ESE,121,0.0,0.0,0,0.00,,OVC060,0.06,VWS V13.01,2013-06-19 12:10:00,
2013-06-19 05:15:00,52.2,0.0,29.99,ESE,121,0.0,0.0,0,0.01,,OVC060,0.07,VWS V13.01,2013-06-19 12:15:00,
2013-06-19 05:20:00,52.2,0.0,29.99,ESE,121,0.0,0.0,0,0.02,,OVC060,0.07,VWS V13.01,2013-06-19 12:20:00,
2013-06-19 05:25:00,52.2,0.0,29.99,ESE,121,0.0,0.0,0,0.02,,OVC060,0.07,VWS V13.01,2013-06-19 12:25:00,
2013-06-19 05:30:00,52.2,0.0,29.99,ESE,121,0.0,0.0,0,0.02,,OVC060,0.07,VWS V13.01,2013-06-19 12:30:00,
2013-06-19 05:36:00,52.2,0.0,29.99,ESE,121,0.0,0.0,0,0.02,,OVC060,0.07,VWS V13.01,2013-06-19 12:36:00,
2013-06-19 05:41:00,52.1,0.0,29.99,ESE,121,0.0,0.0,0,0.02,,OVC060,0.07,VWS V13.01,2013-06-19 12:41:00,
2013-06-19 05:46:00,52.1,0.0,29.99,ESE,121,0.0,0.0,0,0.03,,OVC060,0.08,VWS V13.01,2013-06-19 12:46:00,
2013-06-19 05:51:00,52.2,0.0,29.99,ESE,121,0.0,0.0,0,0.03,,OVC060,0.08,VWS V13.01,2013-06-19 12:51:00,
2013-06-19 05:56:00,52.2,0.0,29.99,ESE,121,0.0,0.0,0,0.03,,OVC060,0.08,VWS V13.01,2013-06-19 12:56:00,
2013-06-19 06:01:00,52.2,0.0,29.99,ESE,121,0.0,0.0,0,0.04,,OVC050,0.09,VWS V13.01,2013-06-19 13:01:00,
2013-06-19 06:06:00,52.2,0.0,29.99,ESE,121,0.0,0.0,0,0.06,,OVC050,0.11,VWS V13.01,2013-06-19 13:06:00,
2013-06-19 06:11:00,52.2,0.0,29.99,ESE,121,0.0,0.0,0,0.08,,OVC050,0.13,VWS V13.01,2013-06-19 13:11:00,
2013-06-19 06:16:00,52.2,0.0,29.99,ESE,121,0.0,0.0,0,0.09,,OVC050,0.16,VWS V13.01,2013-06-19 13:16:00,
2013-06-19 06:21:00,52.1,0.0,30.00,ESE,121,0.0,1.0,0,0.12,,OVC050,0.18,VWS V13.01,2013-06-19 13:21:00,
2013-06-19 06:26:00,52.1,0.0,30.00,ESE,121,0.0,1.0,0,0.15,,OVC050,0.22,VWS V13.01,2013-06-19 13:26:00,
2013-06-19 06:32:00,52.1,0.0,30.00,ESE,121,0.0,0.0,0,0.17,,OVC050,0.24,VWS V13.01,2013-06-19 13:32:00,
2013-06-19 06:37:00,52.1,0.0,30.00,ESE,121,0.0,0.0,0,0.18,,OVC050,0.25,VWS V13.01,2013-06-19 13:37:00,
2013-06-19 06:42:00,52.1,0.0,30.00,ESE,121,0.0,0.0,0,0.18,,OVC050,0.25,VWS V13.01,2013-06-19 13:42:00,
2013-06-19 06:47:00,52.2,0.0,30.00,ESE,121,0.0,0.0,0,0.18,,OVC050,0.25,VWS V13.01,2013-06-19 13:47:00,
2013-06-19 06:52:00,52.2,0.0,30.00,ESE,121,0.0,0.0,0,0.18,,OVC065,0.25,VWS V13.01,2013-06-19 13:52:00,
2013-06-19 06:57:00,52.2,0.0,30.01,ESE,121,0.0,0.0,0,0.18,,OVC065,0.25,VWS V13.01,2013-06-19 13:57:00,
2013-06-19 07:02:00,52.3,0.0,30.01,ESE,121,0.0,0.0,0,0.17,,OVC065,0.25,VWS V13.01,2013-06-19 14:02:00,
2013-06-19 07:07:00,52.3,0.0,30.01,ESE,121,0.0,0.0,0,0.17,,OVC065,0.25,VWS V13.01,2013-06-19 14:07:00,
2013-06-19 07:12:00,52.4,0.0,30.01,SSW,198,0.0,2.0,0,0.17,,OVC065,0.25,VWS V13.01,2013-06-19 14:12:00,
2013-06-19 07:17:00,52.4,0.0,30.01,SSW,198,0.0,2.0,0,0.11,,OVC065,0.25,VWS V13.01,2013-06-19 14:17:00,
2013-06-19 07:22:00,52.4,0.0,30.01,SSW,198,0.0,2.0,0,0.11,,OVC065,0.25,VWS V13.01,2013-06-19 14:22:00,
2013-06-19 07:28:00,52.5,0.0,30.01,SSW,198,0.0,2.0,0,0.11,,OVC065,0.25,VWS V13.01,2013-06-19 14:28:00,
2013-06-19 07:33:00,52.6,0.0,30.01,SSW,198,0.0,0.0,0,0.02,,OVC065,0.25,VWS V13.01,2013-06-19 14:33:00,
2013-06-19 07:38:00,52.8,0.0,30.01,SSW,198,0.0,0.0,0,0.02,,OVC065,0.25,VWS V13.01,2013-06-19 14:38:00,
2013-06-19 07:43:00,53.0,0.0,30.01,SSW,198,0.0,0.0,0,0.02,,OVC065,0.25,VWS V13.01,2013-06-19 14:43:00,
2013-06-19 07:48:00,53.2,0.0,30.01,SSW,198,0.0,0.0,0,0.00,,OVC065,0.25,VWS V13.01,2013-06-19 14:48:00,
2013-06-19 07:53:00,53.3,0.0,30.01,SSW,198,0.0,1.0,0,0.00,,OVC080,0.25,VWS V13.01,2013-06-19 14:53:00,
2013-06-19 07:58:00,53.3,0.0,30.01,SSW,198,0.0,1.0,0,0.01,,OVC080,0.26,VWS V13.01,2013-06-19 14:58:00,
2013-06-19 08:03:00,53.4,0.0,30.02,SSW,198,0.0,2.0,0,0.01,,OVC080,0.26,VWS V13.01,2013-06-19 15:03:00,
2013-06-19 08:08:00,53.4,0.0,30.02,South,174,0.0,2.0,0,0.01,,OVC080,0.26,VWS V13.01,2013-06-19 15:08:00,
2013-06-19 08:13:00,53.5,0.0,30.02,South,175,0.0,2.0,0,0.01,,OVC080,0.26,VWS V13.01,2013-06-19 15:13:00,
2013-06-19 08:18:00,53.8,0.0,30.02,South,185,0.0,2.0,0,0.01,,OVC080,0.26,VWS V13.01,2013-06-19 15:18:00,
2013-06-19 08:24:00,53.9,0.0,30.02,South,190,0.0,2.0,0,0.01,,OVC080,0.26,VWS V13.01,2013-06-19 15:24:00,
2013-06-19 08:29:00,54.1,0.0,30.02,SSW,194,0.0,2.0,0,0.01,,OVC080,0.26,VWS V13.01,2013-06-19 15:29:00,
2013-06-19 08:34:00,54.4,0.0,30.02,SSW,194,0.0,0.0,0,0.01,,OVC080,0.26,VWS V13.01,2013-06-19 15:34:00,
2013-06-19 08:39:00,54.7,0.0,30.02,SSW,200,0.0,3.0,0,0.01,,OVC080,0.26,VWS V13.01,2013-06-19 15:39:00,
2013-06-19 08:44:00,54.7,0.0,30.02,West,267,0.0,0.0,0,0.01,,OVC080,0.26,VWS V13.01,2013-06-19 15:44:00,
2013-06-19 08:49:00,54.9,0.0,30.03,South,180,2.0,3.0,0,0.01,,OVC080,0.26,VWS V13.01,2013-06-19 15:49:00,
2013-06-19 08:54:00,54.9,0.0,30.03,SSE,166,0.0,4.0,0,0.01,,OVC080,0.26,VWS V13.01,2013-06-19 15:54:00,
2013-06-19 08:59:00,54.9,0.0,30.03,SW,219,1.0,1.0,0,0.01,,OVC080,0.26,VWS V13.01,2013-06-19 15:59:00,
2013-06-19 09:04:00,54.8,0.0,30.03,South,184,0.0,2.0,0,0.00,,OVC080,0.26,VWS V13.01,2013-06-19 16:04:00,
2013-06-19 09:09:00,54.9,0.0,30.03,ESE,107,1.0,3.0,0,0.00,,OVC080,0.26,VWS V13.01,2013-06-19 16:09:00,
2013-06-19 09:14:00,54.9,0.0,30.03,South,177,0.0,1.0,0,0.00,,OVC080,0.26,VWS V13.01,2013-06-19 16:14:00,
2013-06-19 09:19:00,55.0,0.0,30.03,SSE,157,2.0,3.0,0,0.01,,OVC080,0.27,VWS V13.01,2013-06-19 16:19:00,
2013-06-19 09:24:00,55.1,0.0,30.04,SE,126,0.0,3.0,0,0.02,,OVC080,0.28,VWS V13.01,2013-06-19 16:24:00,
2013-06-19 09:29:00,55.2,0.0,30.04,SW,227,2.0,2.0,0,0.03,,OVC080,0.29,VWS V13.01,2013-06-19 16:29:00,
2013-06-19 09:34:00,54.9,0.0,30.04,South,171,2.0,6.0,0,0.03,,OVC080,0.29,VWS V13.01,2013-06-19 16:34:00,
2013-06-19 09:39:00,54.6,0.0,30.04,SE,139,0.0,6.0,0,0.03,,OVC080,0.29,VWS V13.01,2013-06-19 16:39:00,
2013-06-19 09:44:00,54.5,0.0,30.04,SE,134,0.0,2.0,0,0.03,,OVC080,0.29,VWS V13.01,2013-06-19 16:44:00,
2013-06-19 09:50:00,54.6,0.0,30.04,SE,134,0.0,3.0,0,0.03,,OVC080,0.30,VWS V13.01,2013-06-19 16:50:00,
2013-06-19 09:55:00,54.8,0.0,30.04,SE,134,0.0,3.0,0,0.04,,BKN070,0.30,VWS V13.01,2013-06-19 16:55:00,
2013-06-19 10:00:00,54.8,0.0,30.04,SE,134,0.0,0.0,0,0.04,,BKN070,0.30,VWS V13.01,2013-06-19 17:00:00,
2013-06-19 10:05:00,55.1,0.0,30.04,SE,134,0.0,1.0,0,0.04,,BKN070,0.30,VWS V13.01,2013-06-19 17:05:00,
2013-06-19 10:10:00,55.8,0.0,30.04,South,190,0.0,3.0,0,0.04,,BKN070,0.30,VWS V13.01,2013-06-19 17:10:00,
2013-06-19 10:15:00,55.8,0.0,30.04,NE,54,0.0,2.0,0,0.04,,BKN070,0.30,VWS V13.01,2013-06-19 17:15:00,
2013-06-19 10:20:00,55.9,0.0,30.04,NE,54,0.0,2.0,0,0.04,,BKN070,0.30,VWS V13.01,2013-06-19 17:20:00,
2013-06-19 10:25:00,56.2,0.0,30.04,ENE,57,0.0,2.0,0,0.04,,BKN070,0.30,VWS V13.01,2013-06-19 17:25:00,
2013-06-19 10:30:00,57.0,0.0,30.04,ENE,57,0.0,2.0,0,0.01,,BKN070,0.30,VWS V13.01,2013-06-19 17:30:00,
2013-06-19 10:35:00,56.8,0.0,30.04,ENE,57,0.0,2.0,0,0.01,,BKN070,0.30,VWS V13.01,2013-06-19 17:35:00,
2013-06-19 10:40:00,56.8,0.0,30.04,ENE,57,0.0,2.0,0,0.01,,BKN070,0.30,VWS V13.01,2013-06-19 17:40:00,
2013-06-19 10:45:00,57.0,0.0,30.04,ENE,57,0.0,0.0,0,0.01,,BKN070,0.30,VWS V13.01,2013-06-19 17:45:00,
2013-06-19 10:50:00,57.6,0.0,30.04,ENE,61,1.0,2.0,0,0.01,,BKN049,0.30,VWS V13.01,2013-06-19 17:50:00,
2013-06-19 10:55:00,57.2,0.0,30.04,South,175,4.0,6.0,0,0.01,,BKN049,0.30,VWS V13.01,2013-06-19 17:55:00,
2013-06-19 11:01:00,57.0,-42.8,30.04,ESE,105,2.0,5.0,1,0.00,,BKN049,0.30,VWS V13.01,2013-06-19 18:01:00,
2013-06-19 11:06:00,57.2,8.4,30.05,SSE,166,1.0,5.0,14,0.00,,BKN049,0.30,VWS V13.01,2013-06-19 18:06:00,
2013-06-19 11:11:00,57.7,7.2,30.05,WSW,240,2.0,5.0,13,0.00,,BKN049,0.30,VWS V13.01,2013-06-19 18:11:00,
2013-06-19 11:16:00,58.4,13.8,30.05,SSW,206,2.0,7.0,17,0.00,,BKN049,0.30,VWS V13.01,2013-06-19 18:16:00,
2013-06-19 11:21:00,58.8,40.2,30.05,SSE,165,7.0,8.0,50,0.00,,BKN049,0.30,VWS V13.01,2013-06-19 18:21:00,
2013-06-19 11:26:00,58.7,38.0,30.04,SE,128,4.0,9.0,46,0.00,,BKN049,0.30,VWS V13.01,2013-06-19 18:26:00,
2013-06-19 11:31:00,59.0,34.1,30.04,NNE,25,0.0,6.0,39,0.00,,BKN049,0.30,VWS V13.01,2013-06-19 18:31:00,
2013-06-19 11:36:00,59.3,28.7,30.04,SSW,194,3.0,6.0,31,0.00,,BKN049,0.30,VWS V13.01,2013-06-19 18:36:00,
2013-06-19 11:41:00,59.4,39.7,30.04,South,186,3.0,7.0,48,0.00,,BKN049,0.30,VWS V13.01,2013-06-19 18:41:00,
2013-06-19 11:46:00,59.2,34.3,30.04,South,175,4.0,6.0,39,0.00,,BKN049,0.30,VWS V13.01,2013-06-19 18:46:00,
2013-06-19 11:51:00,58.7,35.7,30.05,SSE,149,0.0,7.0,42,0.00,,BKN060,0.30,VWS V13.01,2013-06-19 18:51:00,
2013-06-19 11:56:00,58.5,11.0,30.05,SSE,149,0.0,7.0,15,0.00,,BKN060,0.30,VWS V13.01,2013-06-19 18:56:00,
2013-06-19 12:01:00,58.1,13.5,30.05,SE,129,0.0,4.0,17,0.01,,BKN060,0.31,VWS V13.01,2013-06-19 19:01:00,
2013-06-19 12:07:00,57.7,7.2,30.05,ESE,122,1.0,4.0,13,0.01,,BKN060,0.31,VWS V13.01,2013-06-19 19:07:00,
2013-06-19 12:12:00,57.4,0.0,30.06,ESE,122,0.0,4.0,0,0.01,,BKN060,0.31,VWS V13.01,2013-06-19 19:12:00,
2013-06-19 12:17:00,57.1,0.0,30.05,ESE,122,1.0,1.0,0,0.01,,BKN060,0.31,VWS V13.01,2013-06-19 19:17:00,
2013-06-19 12:22:00,56.8,0.0,30.06,ESE,122,0.0,1.0,0,0.01,,BKN060,0.31,VWS V13.01,2013-06-19 19:22:00,
2013-06-19 12:27:00,56.7,0.0,30.05,NE,47,2.0,4.0,0,0.01,,BKN060,0.31,VWS V13.01,2013-06-19 19:27:00,
2013-06-19 12:32:00,56.9,0.0,30.06,NE,37,3.0,4.0,0,0.01,,BKN060,0.31,VWS V13.01,2013-06-19 19:32:00,
2013-06-19 12:37:00,57.5,0.0,30.05,SE,134,1.0,4.0,0,0.01,,BKN060,0.31,VWS V13.01,2013-06-19 19:37:00,
2013-06-19 12:42:00,57.5,11.7,30.05,ESE,122,2.0,5.0,16,0.01,,BKN060,0.31,VWS V13.01,2013-06-19 19:42:00,
2013-06-19 12:47:00,57.9,17.1,30.05,SE,134,7.0,7.0,20,0.01,,BKN060,0.31,VWS V13.01,2013-06-19 19:47:00,
2013-06-19 12:52:00,58.1,19.5,30.05,SE,131,2.0,8.0,22,0.01,,BKN060,0.31,VWS V13.01,2013-06-19 19:52:00,
2013-06-19 12:58:00,58.2,40.2,30.05,SSE,154,2.0,8.0,51,0.01,,BKN060,0.31,VWS V13.01,2013-06-19 19:58:00,
2013-06-19 13:03:00,58.2,20.6,30.06,SE,128,3.0,4.0,23,0.01,,BKN060,0.31,VWS V13.01,2013-06-19 20:03:00,
2013-06-19 13:08:00,58.2,34.0,30.06,SE,124,1.0,6.0,40,0.01,,BKN060,0.31,VWS V13.01,2013-06-19 20:08:00,
2013-06-19 13:13:00,57.8,8.9,30.07,ENE,58,2.0,6.0,14,0.01,,BKN060,0.31,VWS V13.01,2013-06-19 20:13:00,
2013-06-19 13:18:00,57.5,0.0,30.07,SSE,150,2.0,4.0,0,0.00,,BKN060,0.31,VWS V13.01,2013-06-19 20:18:00,
2013-06-19 13:23:00,57.6,-0.8,30.07,SSW,196,3.0,4.0,9,0.00,,BKN060,0.31,VWS V13.01,2013-06-19 20:23:00,
2013-06-19 13:28:00,57.8,37.2,30.07,ESE,121,0.0,4.0,46,0.00,,BKN060,0.31,VWS V13.01,2013-06-19 20:28:00,
2013-06-19 13:33:00,58.7,43.1,30.07,ESE,109,2.0,5.0,56,0.00,,BKN060,0.31,VWS V13.01,2013-06-19 20:33:00,
2013-06-19 13:38:00,59.3,44.5,30.07,SE,144,5.0,10.0,58,0.00,,BKN060,0.31,VWS V13.01,2013-06-19 20:38:00,
2013-06-19 13:43:00,59.3,47.5,30.07,SSW,203,1.0,11.0,65,0.00,,BKN060,0.31,VWS V13.01,2013-06-19 20:43:00,
2013-06-19 13:49:00,59.3,45.4,30.07,SSE,159,0.0,4.0,60,0.00,,BKN060,0.31,VWS V13.01,2013-06-19 20:49:00,
2013-06-19 13:54:00,59.2,43.1,30.07,South,171,0.0,6.0,55,0.00,,BKN075,0.31,VWS V13.01,2013-06-19 20:54:00,
2013-06-19 13:59:00,59.1,43.4,30.07,SE,139,1.0,2.0,56,0.00,,BKN075,0.31,VWS V13.01,2013-06-19 20:59:00,
2013-06-19 14:04:00,59.0,45.6,30.07,SE,137,0.0,4.0,61,0.00,,BKN075,0.31,VWS V13.01,2013-06-19 21:04:00,
2013-06-19 14:09:00,59.0,47.7,30.07,SSE,148,2.0,7.0,66,0.00,,BKN075,0.31,VWS V13.01,2013-06-19 21:09:00,
2013-06-19 14:14:00,59.3,44.5,30.08,SSW,210,0.0,0.0,58,0.00,,BKN075,0.31,VWS V13.01,2013-06-19 21:14:00,
2013-06-19 14:19:00,59.4,46.8,30.08,SE,141,1.0,6.0,63,0.00,,BKN075,0.31,VWS V13.01,2013-06-19 21:19:00,
2013-06-19 14:24:00,59.4,48.0,30.08,SW,223,2.0,6.0,66,0.00,,BKN075,0.31,VWS V13.01,2013-06-19 21:24:00,
2013-06-19 14:29:00,59.6,48.6,30.08,SE,144,5.0,6.0,67,0.00,,BKN075,0.31,VWS V13.01,2013-06-19 21:29:00,
2013-06-19 14:34:00,59.6,39.9,30.08,WSW,243,0.0,6.0,48,0.00,,BKN075,0.31,VWS V13.01,2013-06-19 21:34:00,
2013-06-19 14:40:00,59.6,47.4,30.08,East,94,0.0,6.0,64,0.00,,BKN075,0.31,VWS V13.01,2013-06-19 21:40:00,
2013-06-19 14:45:00,59.9,46.9,30.08,SE,126,4.0,4.0,62,0.00,,BKN075,0.31,VWS V13.01,2013-06-19 21:45:00,
2013-06-19 14:50:00,59.8,46.8,30.08,South,175,4.0,11.0,62,0.00,,BKN075,0.31,VWS V13.01,2013-06-19 21:50:00,
2013-06-19 14:55:00,59.3,46.7,30.08,South,182,4.0,11.0,63,0.00,,BKN075,0.31,VWS V13.01,2013-06-19 21:55:00,
2013-06-19 15:00:00,59.2,45.8,30.08,SE,143,1.0,4.0,61,0.00,,BKN075,0.31,VWS V13.01,2013-06-19 22:00:00,
2013-06-19 15:05:00,59.4,46.4,30.08,SSE,157,4.0,6.0,62,0.00,,BKN075,0.31,VWS V13.01,2013-06-19 22:05:00,
2013-06-19 15:10:00,59.1,46.5,30.09,SE,146,3.0,7.0,63,0.00,,BKN075,0.31,VWS V13.01,2013-06-19 22:10:00,
2013-06-19 15:15:00,58.6,46.5,30.09,East,90,3.0,8.0,64,0.00,,BKN075,0.31,VWS V13.01,2013-06-19 22:15:00,
2013-06-19 15:20:00,58.4,37.7,30.09,SSW,192,0.0,8.0,46,0.00,,BKN075,0.31,VWS V13.01,2013-06-19 22:20:00,
2013-06-19 15:25:00,58.5,44.2,30.09,SE,126,1.0,8.0,59,0.00,,BKN075,0.31,VWS V13.01,2013-06-19 22:25:00,
2013-06-19 15:31:00,59.1,43.4,30.09,NE,48,2.0,5.0,56,0.00,,BKN075,0.31,VWS V13.01,2013-06-19 22:31:00,
2013-06-19 15:36:00,59.8,47.6,30.09,ENE,74,2.0,7.0,64,0.00,,BKN075,0.31,VWS V13.01,2013-06-19 22:36:00,
2013-06-19 15:41:00,60.1,44.8,30.09,South,171,4.0,7.0,57,0.00,,BKN075,0.31,VWS V13.01,2013-06-19 22:41:00,
2013-06-19 15:46:00,59.8,45.9,30.09,South,184,1.0,4.0,60,0.00,,BKN075,0.31,VWS V13.01,2013-06-19 22:46:00,
2013-06-19 15:51:00,59.8,45.9,30.09,SE,134,1.0,5.0,60,0.00,,BKN080,0.31,VWS V13.01,2013-06-19 22:51:00,
2013-06-19 15:56:00,59.8,48.4,30.09,SSW,200,0.0,5.0,66,0.00,,BKN080,0.31,VWS V13.01,2013-06-19 22:56:00,
2013-06-19 16:01:00,60.3,48.5,30.09,SSW,197,0.0,1.0,65,0.00,,BKN080,0.31,VWS V13.01,2013-06-19 23:01:00,
2013-06-19 16:06:00,60.7,48.5,30.09,SSW,206,1.0,3.0,64,0.00,,BKN080,0.31,VWS V13.01,2013-06-19 23:06:00,
2013-06-19 16:11:00,60.5,49.1,30.09,SSE,161,0.0,5.0,66,0.00,,BKN080,0.31,VWS V13.01,2013-06-19 23:11:00,
2013-06-19 16:16:00,60.1,49.1,30.09,WSW,248,0.0,4.0,67,0.00,,BKN080,0.31,VWS V13.01,2013-06-19 23:16:00,
2013-06-19 16:21:00,60.0,46.5,30.09,West,269,3.0,5.0,61,0.00,,BKN080,0.31,VWS V13.01,2013-06-19 23:21:00,
2013-06-19 16:26:00,59.9,44.7,30.10,SSW,204,0.0,5.0,57,0.00,,BKN080,0.31,VWS V13.01,2013-06-19 23:26:00,
2013-06-19 16:31:00,59.5,46.5,30.10,SSE,156,2.0,4.0,62,0.00,,BKN080,0.31,VWS V13.01,2013-06-19 23:31:00,
2013-06-19 16:37:00,59.2,47.9,30.10,SSE,148,0.0,4.0,66,0.00,,BKN080,0.31,VWS V13.01,2013-06-19 23:37:00,
2013-06-19 16:42:00,59.2,46.6,30.10,SSW,197,0.0,4.0,63,0.00,,BKN080,0.31,VWS V13.01,2013-06-19 23:42:00,
2013-06-19 16:47:00,59.2,47.0,30.10,South,185,3.0,5.0,64,0.00,,BKN080,0.31,VWS V13.01,2013-06-19 23:47:00,
2013-06-19 16:52:00,59.1,46.5,30.10,SSE,153,1.0,5.0,63,0.00,,BKN075,0.31,VWS V13.01,2013-06-19 23:52:00,
2013-06-19 16:57:00,59.1,45.2,30.10,South,179,0.0,5.0,60,0.00,,BKN075,0.31,VWS V13.01,2013-06-19 23:57:00,
2013-06-19 17:02:00,59.1,47.4,30.10,SSE,148,1.0,5.0,65,0.00,,BKN075,0.31,VWS V13.01,2013-06-20 00:02:00,
2013-06-19 17:07:00,59.2,44.0,30.10,SSE,148,2.0,5.0,57,0.00,,BKN075,0.31,VWS V13.01,2013-06-20 00:07:00,
2013-06-19 17:12:00,59.0,46.4,30.10,SSE,156,1.0,5.0,63,0.00,,BKN080,0.31,VWS V13.01,2013-06-20 00:12:00,
2013-06-19 17:17:00,58.9,46.8,30.10,South,173,4.0,5.0,64,0.00,,BKN080,0.31,VWS V13.01,2013-06-20 00:17:00,
2013-06-19 17:23:00,58.8,46.2,30.10,South,190,0.0,7.0,63,0.00,,BKN080,0.31,VWS V13.01,2013-06-20 00:23:00,
2013-06-19 17:28:00,58.9,45.5,30.10,SSE,166,0.0,7.0,61,0.00,,BKN080,0.31,VWS V13.01,2013-06-20 00:28:00,
2013-06-19 17:33:00,58.9,46.8,30.11,ESE,109,2.0,3.0,64,0.00,,BKN080,0.31,VWS V13.01,2013-06-20 00:33:00,
2013-06-19 17:38:00,59.0,45.6,30.11,NE,53,0.0,3.0,61,0.00,,BKN080,0.31,VWS V13.01,2013-06-20 00:38:00,
2013-06-19 17:43:00,59.2,46.6,30.10,East,101,0.0,3.0,63,0.00,,BKN080,0.31,VWS V13.01,2013-06-20 00:43:00,
2013-06-19 17:48:00,59.2,47.9,30.11,SSW,192,1.0,5.0,66,0.00,,BKN080,0.31,VWS V13.01,2013-06-20 00:48:00,
2013-06-19 17:53:00,59.1,47.0,30.12,SSE,153,3.0,6.0,64,0.00,,BKN080,0.31,VWS V13.01,2013-06-20 00:53:00,
2013-06-19 17:58:00,58.9,47.2,30.12,South,175,1.0,6.0,65,0.00,,BKN080,0.31,VWS V13.01,2013-06-20 00:58:00,
2013-06-19 18:03:00,58.6,46.1,30.12,SSW,200,2.0,4.0,63,0.00,,BKN080,0.31,VWS V13.01,2013-06-20 01:03:00,
2013-06-19 18:08:00,58.3,43.6,30.12,ENE,61,0.0,5.0,58,0.00,,BKN080,0.31,VWS V13.01,2013-06-20 01:08:00,
2013-06-19 18:13:00,58.1,41.6,30.12,SSW,194,1.0,5.0,54,0.00,,BKN080,0.31,VWS V13.01,2013-06-20 01:13:00,
2013-06-19 18:18:00,57.9,43.7,30.12,SSW,205,2.0,4.0,59,0.00,,BKN080,0.31,VWS V13.01,2013-06-20 01:18:00,
2013-06-19 18:24:00,57.8,42.2,30.12,West,275,0.0,9.0,56,0.00,,BKN080,0.31,VWS V13.01,2013-06-20 01:24:00,
2013-06-19 18:29:00,57.8,41.8,30.12,South,175,0.0,9.0,55,0.00,,BKN080,0.31,VWS V13.01,2013-06-20 01:29:00,
2013-06-19 18:34:00,58.0,30.5,30.12,SSW,200,0.0,2.0,35,0.00,,BKN080,0.31,VWS V13.01,2013-06-20 01:34:00,
2013-06-19 18:39:00,58.0,37.9,30.12,SSW,200,0.0,2.0,47,0.00,,BKN080,0.31,VWS V13.01,2013-06-20 01:39:00,
2013-06-19 18:44:00,58.0,40.0,30.12,ESE,115,0.0,0.0,51,0.00,,BKN080,0.31,VWS V13.01,2013-06-20 01:44:00,
2013-06-19 18:49:00,58.0,39.0,30.12,SW,214,2.0,3.0,49,0.00,,BKN080,0.31,VWS V13.01,2013-06-20 01:49:00,
2013-06-19 18:54:00,57.9,39.4,30.13,South,169,1.0,3.0,50,0.00,,BKN080,0.31,VWS V13.01,2013-06-20 01:54:00,
2013-06-19 18:59:00,57.7,38.7,30.13,South,181,1.0,1.0,49,0.00,,BKN080,0.31,VWS V13.01,2013-06-20 01:59:00,
2013-06-19 19:04:00,57.7,37.1,30.13,South,179,0.0,1.0,46,0.00,,BKN080,0.31,VWS V13.01,2013-06-20 02:04:00,
2013-06-19 19:09:00,57.7,32.9,30.13,South,176,0.0,2.0,39,0.00,,BKN080,0.31,VWS V13.01,2013-06-20 02:09:00,
2013-06-19 19:14:00,57.6,34.7,30.13,SSE,165,0.0,0.0,42,0.00,,BKN080,0.31,VWS V13.01,2013-06-20 02:14:00,
2013-06-19 19:19:00,57.5,36.3,30.13,SSE,165,0.0,2.0,45,0.00,,BKN080,0.31,VWS V13.01,2013-06-20 02:19:00,
2013-06-19 19:24:00,57.4,32.0,30.13,SSE,165,0.0,2.0,38,0.00,,BKN080,0.31,VWS V13.01,2013-06-20 02:24:00,
2013-06-19 19:29:00,57.3,29.9,30.13,South,176,1.0,2.0,35,0.00,,BKN080,0.31,VWS V13.01,2013-06-20 02:29:00,
2013-06-19 19:35:00,57.3,31.3,30.13,South,187,3.0,3.0,37,0.00,,BKN080,0.31,VWS V13.01,2013-06-20 02:35:00,
2013-06-19 19:40:00,57.3,27.7,30.13,East,93,0.0,3.0,32,0.00,,BKN080,0.31,VWS V13.01,2013-06-20 02:40:00,
2013-06-19 19:45:00,57.3,33.2,30.13,ENE,74,0.0,1.0,40,0.00,,BKN080,0.31,VWS V13.01,2013-06-20 02:45:00,
2013-06-19 19:50:00,57.2,29.1,30.13,West,260,0.0,2.0,34,0.00,,BKN070,0.31,VWS V13.01,2013-06-20 02:50:00,
2013-06-19 19:55:00,57.1,33.0,30.14,SSE,161,3.0,3.0,40,0.00,,BKN070,0.31,VWS V13.01,2013-06-20 02:55:00,
2013-06-19 20:00:00,57.1,32.4,30.14,SW,217,0.0,0.0,39,0.00,,BKN070,0.31,VWS V13.01,2013-06-20 03:00:00,
2013-06-19 20:05:00,57.0,22.5,30.14,SSW,206,0.0,2.0,26,0.00,,BKN070,0.31,VWS V13.01,2013-06-20 03:05:00,
2013-06-19 20:10:00,56.8,29.5,30.14,SE,138,0.0,4.0,35,0.00,,BKN070,0.31,VWS V13.01,2013-06-20 03:10:00,
2013-06-19 20:15:00,56.7,30.1,30.14,SW,230,0.0,1.0,36,0.00,,BKN070,0.31,VWS V13.01,2013-06-20 03:15:00,
2013-06-19 20:20:00,56.7,17.2,30.14,WSW,252,0.0,1.0,21,0.00,,BKN070,0.31,VWS V13.01,2013-06-20 03:20:00,
2013-06-19 20:26:00,56.6,27.1,30.14,SW,235,0.0,2.0,32,0.00,,BKN070,0.31,VWS V13.01,2013-06-20 03:26:00,
2013-06-19 20:31:00,56.4,15.9,30.14,WSW,249,0.0,1.0,20,0.00,,BKN070,0.31,VWS V13.01,2013-06-20 03:31:00,
2013-06-19 20:36:00,56.3,-23.7,30.14,SW,227,0.0,1.0,3,0.00,,BKN070,0.31,VWS V13.01,2013-06-20 03:36:00,
2013-06-19 20:41:00,56.2,-10.2,30.14,SSW,210,1.0,2.0,6,0.00,,BKN070,0.31,VWS V13.01,2013-06-20 03:41:00,
2013-06-19 20:46:00,56.0,0.0,30.14,SSW,210,1.0,1.0,0,0.00,,BKN070,0.31,VWS V13.01,2013-06-20 03:46:00,
2013-06-19 20:51:00,55.8,0.0,30.14,SSW,210,0.0,1.0,0,0.00,,BKN080,0.31,VWS V13.01,2013-06-20 03:51:00,
2013-06-19 20:56:00,55.6,0.0,30.14,SSW,210,0.0,1.0,0,0.00,,BKN080,0.31,VWS V13.01,2013-06-20 03:56:00,
2013-06-19 21:01:00,55.5,0.0,30.14,SSW,210,0.0,0.0,0,0.00,,BKN080,0.31,VWS V13.01,2013-06-20 04:01:00,
2013-06-19 21:02:00,55.5,0.0,30.14,SSW,210,0.0,0.0,0,0.00,,BKN080,0.31,VWS V13.01,2013-06-20 04:02:00,
2013-06-19 21:07:00,55.5,0.0,30.14,SSW,210,0.0,0.0,0,0.00,,BKN080,0.31,VWS V13.01,2013-06-20 04:07:00,
2013-06-19 21:12:00,55.5,0.0,30.14,SSW,210,0.0,1.0,0,0.00,,BKN080,0.31,VWS V13.01,2013-06-20 04:12:00,
2013-06-19 21:18:00,55.3,0.0,30.13,SSW,210,0.0,0.0,0,0.00,,BKN080,0.31,VWS V13.01,2013-06-20 04:18:00,
2013-06-19 21:23:00,55.2,0.0,30.14,SSW,210,0.0,0.0,0,0.00,,BKN080,0.31,VWS V13.01,2013-06-20 04:23:00,
2013-06-19 21:28:00,55.1,0.0,30.14,SSW,210,0.0,1.0,0,0.00,,BKN080,0.31,VWS V13.01,2013-06-20 04:28:00,
2013-06-19 21:33:00,54.7,0.0,30.14,NE,35,0.0,4.0,0,0.00,,BKN080,0.31,VWS V13.01,2013-06-20 04:33:00,
2013-06-19 21:38:00,54.8,0.0,30.14,NE,35,2.0,4.0,0,0.00,,BKN080,0.31,VWS V13.01,2013-06-20 04:38:00,
2013-06-19 21:43:00,54.9,0.0,30.14,NE,35,1.0,4.0,0,0.00,,BKN080,0.31,VWS V13.01,2013-06-20 04:43:00,
2013-06-19 21:48:00,54.8,0.0,30.14,NE,35,0.0,1.0,0,0.00,,BKN080,0.31,VWS V13.01,2013-06-20 04:48:00,
2013-06-19 21:53:00,54.8,0.0,30.14,NE,35,0.0,1.0,0,0.00,,BKN080,0.31,VWS V13.01,2013-06-20 04:53:00,
2013-06-19 21:58:00,54.7,0.0,30.14,NE,35,0.0,1.0,0,0.00,,BKN080,0.31,VWS V13.01,2013-06-20 04:58:00,
2013-06-19 22:03:00,54.7,0.0,30.15,NE,35,0.0,0.0,0,0.00,,BKN080,0.31,VWS V13.01,2013-06-20 05:03:00,
2013-06-19 22:08:00,54.6,0.0,30.15,NE,35,2.0,3.0,0,0.00,,BKN080,0.31,VWS V13.01,2013-06-20 05:08:00,
2013-06-19 22:13:00,54.6,0.0,30.15,NE,35,1.0,3.0,0,0.00,,BKN080,0.31,VWS V13.01,2013-06-20 05:13:00,
2013-06-19 22:18:00,54.6,0.0,30.15,NE,35,0.0,1.0,0,0.00,,BKN080,0.31,VWS V13.01,2013-06-20 05:18:00,
2013-06-19 22:24:00,54.6,0.0,30.15,NE,35,0.0,1.0,0,0.00,,BKN080,0.31,VWS V13.01,2013-06-20 05:24:00,
2013-06-19 22:29:00,54.6,0.0,30.15,NE,35,0.0,1.0,0,0.00,,BKN080,0.31,VWS V13.01,2013-06-20 05:29:00,
2013-06-19 22:34:00,54.6,0.0,30.15,NE,35,0.0,0.0,0,0.00,,BKN080,0.31,VWS V13.01,2013-06-20 05:34:00,
2013-06-19 22:39:00,54.5,0.0,30.15,NE,35,0.0,0.0,0,0.00,,BKN080,0.31,VWS V13.01,2013-06-20 05:39:00,
2013-06-19 22:44:00,54.5,0.0,30.15,NE,35,0.0,0.0,0,0.00,,BKN080,0.31,VWS V13.01,2013-06-20 05:44:00,
2013-06-19 22:49:00,54.5,0.0,30.15,NE,35,0.0,0.0,0,0.00,,BKN080,0.31,VWS V13.01,2013-06-20 05:49:00,
2013-06-19 22:54:00,54.4,0.0,30.15,NE,35,0.0,0.0,0,0.00,,BKN080,0.31,VWS V13.01,2013-06-20 05:54:00,
2013-06-19 22:59:00,54.4,0.0,30.15,NE,35,0.0,0.0,0,0.00,,BKN080,0.31,VWS V13.01,2013-06-20 05:59:00,
2013-06-19 23:04:00,54.3,0.0,30.15,NE,35,0.0,0.0,0,0.00,,BKN080,0.31,VWS V13.01,2013-06-20 06:04:00,
2013-06-19 23:09:00,54.3,0.0,30.15,NE,35,0.0,0.0,0,0.00,,BKN080,0.31,VWS V13.01,2013-06-20 06:09:00,
2013-06-19 23:14:00,54.2,0.0,30.15,NE,35,0.0,2.0,0,0.00,,BKN080,0.31,VWS V13.01,2013-06-20 06:14:00,
2013-06-19 23:20:00,54.2,0.0,30.15,NE,35,0.0,2.0,0,0.00,,BKN080,0.31,VWS V13.01,2013-06-20 06:20:00,
2013-06-19 23:25:00,54.1,0.0,30.14,NE,35,0.0,2.0,0,0.00,,BKN080,0.31,VWS V13.01,2013-06-20 06:25:00,
2013-06-19 23:30:00,54.1,0.0,30.14,NE,35,0.0,0.0,0,0.00,,BKN080,0.31,VWS V13.01,2013-06-20 06:30:00,
2013-06-19 23:35:00,54.0,0.0,30.14,NE,40,1.0,1.0,0,0.00,,BKN080,0.31,VWS V13.01,2013-06-20 06:35:00,
2013-06-19 23:40:00,53.9,0.0,30.14,NE,40,0.0,1.0,0,0.00,,BKN080,0.31,VWS V13.01,2013-06-20 06:40:00,
2013-06-19 23:45:00,53.8,0.0,30.15,NE,40,0.0,0.0,0,0.00,,BKN080,0.31,VWS V13.01,2013-06-20 06:45:00,
2013-06-19 23:50:00,53.8,0.0,30.14,NE,40,0.0,0.0,0,0.00,,OVC075,0.31,VWS V13.01,2013-06-20 06:50:00,
2013-06-19 23:55:00,53.7,0.0,30.14,NE,40,0.0,0.0,0,0.00,,OVC075,0.31,VWS V13.01,2013-06-20 06:55:00,